Location: Namasale
(1.5000°N, 32.6167°E)
Time: 23:55:23
(UTC+00:00)

Vanguard 3 - Pass Details

Date: 01 December 2021
Orbit: 508 x 3260 km, 33.3° (Epoch: 27 January)

Event Time Altitude Azimuth Distance (km) Brightness Sun altitude
Exits shadow 01:37:40 37° 308° (NW) 4,322 10.2 -28.5°
Maximum altitude 01:41:32 40° 329° (NNW) 4,190 10.3 -27.6°
Drops below altitude 10° 01:57:58 10° 33° (NNE) 5,523 11.5 -23.8°
Sets 02:02:15 0° 41° (NE) 6,223 11.9 -22.8°
